GW0092 Weather Reports


Display with metric or nautical units.
time (UTC)temp
F
wind
direction
speed
MPH
gust
MPH
rain 1hr
in
rain 24hr
in
rain mn
in
humidity
%
barometer
mb
20260503020052 52 8 0.0 1.0 0.00 0.00 0.00 67 1011.8
20260503014559 52 342 0.0 2.0 0.00 0.00 0.00 69 1011.6
20260503013056 52 13 0.0 1.0 0.00 0.00 0.00 69 1011.8
20260503011604 52 0 0.0 0.0 0.00 0.00 0.00 71 1011.4
20260503004551 53 0 0.0 1.0 0.00 0.00 0.00 68 1011.4
20260503003055 53 0 0.0 1.0 0.00 0.00 0.00 69 1011.0
20260503001603 53 0 0.0 1.0 0.00 0.00 0.00 69 1011.0
20260503000107 53 0 0.0 0.0 0.00 0.00 0.00 69 1011.1
20260502234617 54 0 0.0 0.0 0.00 0.00 0.00 67 1011.1
20260502233110 55 0 0.0 1.0 0.00 0.00 0.00 64 1010.9
20260502231612 56 342 1.0 4.0 0.00 0.00 0.00 62 1010.8
20260502230058 56 334 2.0 6.0 0.00 0.00 0.00 61 1010.8
20260502224600 56 316 2.0 6.0 0.00 0.00 0.00 60 1010.8
20260502223059 57 314 2.0 6.0 0.00 0.00 0.00 57 1011.1
20260502221603 57 316 3.0 8.0 0.00 0.00 0.00 55 1011.0
20260502220053 58 321 4.0 7.0 0.00 0.00 0.00 55 1011.0
20260502214604 57 314 4.0 9.0 0.00 0.00 0.00 57 1010.8
20260502213055 58 350 3.0 6.0 0.00 0.00 0.00 56 1010.8
20260502211605 58 354 2.0 6.0 0.00 0.00 0.00 55 1010.8
20260502210050 58 3 3.0 8.0 0.00 0.00 0.00 55 1010.8
20260502204553 59 319 5.0 9.0 0.00 0.00 0.00 55 1010.8
20260502203058 58 334 5.0 8.0 0.00 0.00 0.00 57 1010.7
20260502201552 58 312 3.0 7.0 0.00 0.00 0.00 56 1010.7
20260502200052 59 352 4.0 10.0 0.00 0.00 0.00 52 1010.7
20260502194554 60 330 5.0 13.0 0.00 0.00 0.00 50 1010.6
20260502193057 60 302 6.0 11.0 0.00 0.00 0.00 50 1010.8
20260502191558 60 357 4.0 11.0 0.00 0.00 0.00 53 1011.1
20260502190101 60 56 3.0 7.0 0.00 0.00 0.00 56 1011.2
20260502184556 59 68 4.0 9.0 0.00 0.00 0.00 57 1011.4
20260502183059 59 344 4.0 8.0 0.00 0.00 0.00 58 1011.9
20260502181557 58 339 3.0 9.0 0.00 0.00 0.00 59 1012.2
20260502163059 56 343 3.0 9.0 0.00 0.00 0.00 69 1012.9
20260502161556 55 300 3.0 8.0 0.00 0.00 0.00 70 1012.9
20260502151608 55 27 4.0 8.0 0.00 0.00 0.00 71 1013.4
20260502150108 55 316 4.0 7.0 0.00 0.00 0.00 70 1013.2
20260502123056 53 325 2.0 5.0 0.00 0.00 0.00 84 1013.2
20260502121554 53 30 2.0 6.0 0.00 0.00 0.00 85 1013.0
20260502120107 52 315 2.0 6.0 0.00 0.00 0.00 86 1013.1
20260502114600 52 300 2.0 6.0 0.00 0.00 0.00 87 1013.2
20260502113057 52 319 3.0 7.0 0.00 0.00 0.00 88 1013.1
20260502111601 52 326 3.0 5.0 0.00 0.00 0.00 89 1013.0
20260502110057 52 317 3.0 7.0 0.00 0.00 0.00 90 1012.8
20260502104559 51 345 2.0 5.0 0.00 0.00 0.00 92 1012.7
20260502103108 50 347 1.0 2.0 0.00 0.00 0.00 93 1012.5
20260502101554 50 338 0.0 3.0 0.00 0.00 0.00 94 1012.5
20260502100113 49 338 0.0 1.0 0.00 0.00 0.00 95 1012.2
20260502070100 50 0 0.0 0.0 0.00 0.00 0.00 86 1012.2
20260502064607 50 0 0.0 0.0 0.00 0.00 0.00 85 1012.4
20260502063054 51 0 0.0 0.0 0.00 0.00 0.00 84 1012.5
20260502061554 52 0 0.0 1.0 0.00 0.00 0.00 84 1012.6
20260502060059 52 143 0.0 1.0 0.00 0.00 0.00 83 1012.9
20260502054553 52 0 0.0 0.0 0.00 0.00 0.00 83 1013.0
20260502053055 52 131 0.0 2.0 0.00 0.00 0.00 83 1013.4
20260502051622 52 0 0.0 2.0 0.00 0.00 0.00 83 1013.5
20260502050053 52 82 1.0 4.0 0.00 0.00 0.00 83 1013.6
20260502044602 51 75 0.0 2.0 0.00 0.00 0.00 86 1013.8
20260502043050 51 0 0.0 2.0 0.00 0.00 0.00 87 1013.9
20260502041554 51 0 0.0 3.0 0.00 0.00 0.00 88 1013.7
20260502040053 51 152 0.0 3.0 0.00 0.00 0.00 88 1013.5
20260502034550 51 177 0.0 2.0 0.00 0.00 0.00 87 1013.6
20260502033055 51 160 1.0 3.0 0.00 0.00 0.00 86 1012.9
20260502031645 51 84 1.0 4.0 0.00 0.00 0.00 86 1013.0
20260502030053 51 163 0.0 3.0 0.00 0.00 0.00 85 1013.4
20260502024555 51 152 0.0 1.0 0.00 0.00 0.00 85 1013.6
20260502023050 51 0 0.0 2.0 0.00 0.00 0.00 84 1013.9
20260502021555 51 134 1.0 3.0 0.00 0.00 0.00 85 1014.0